Weather History for KXNA - March, 2014

Change the Weather History Date:

Sunday, March 9, 2014

  Actual Average Record
Temperature  
Mean Temperature 44 °F -  
Max Temperature 55 °F - - ()
Min Temperature 33 °F - - ()
Degree Days  
Heating Degree Days 21    
Moisture  
Dew Point 37 °F    
Average Humidity 85    
Maximum Humidity 100    
Minimum Humidity 57    
Precipitation  
Precipitation 0.00 in - - ()
Sea Level Pressure  
Sea Level Pressure 30.25 in    
Wind  
Wind Speed 6 mph (SE)    
Max Wind Speed 10 mph    
Max Gust Speed -    
Visibility 5 miles    
Events      
T = Trace of Precipitation, MM = Missing Value Source: NWS Daily Summary

Daily Weather History Graph

Daily Weather History Graph

Search for Another Location

Airport or City:

Trip Planner

Search our weather history database for the weather conditions in past years. The results will help you decide how hot, cold, wet, or windy it might be!

Date:

Astronomy

Mar. 09, 2014 Rise Set
Actual Time 7:36 AM CDT 7:19 PM CDT
Civil Twilight 7:10 AM CDT 7:45 PM CDT
Nautical Twilight 6:41 AM CDT 8:14 PM CDT
Astronomical Twilight 6:11 AM CDT 8:44 PM CDT
Moon 1:20 PM CDT (3/9) 3:55 AM CDT (3/9)
Length of Visible Light 12h 34m
Length of Day
11h 42m
First Quarter, 61% of the Moon is Illuminated
Mar 9
First Quarter
Mar 16
Full
Mar 23
Last Quarter
Mar 30
New
Apr 7
First Quarter

Hourly Weather History & Observations

Time (CDT) Temp. Windchill Dew Point Humidity Pressure Visibility Wind Dir Wind Speed Gust Speed Precip Events Conditions
12:12 AM 35.6 °F 30.7 °F 33.8 °F 93% 30.28 in 4.0 mi NE 5.8 mph - N/A   Overcast
12:22 AM 35.6 °F 30.7 °F 33.8 °F 93% 30.28 in 4.0 mi NNE 5.8 mph - N/A   Overcast
12:32 AM 35.6 °F 30.7 °F 33.8 °F 93% 30.28 in 4.0 mi NE 5.8 mph - N/A   Overcast
12:36 AM 35.6 °F 30.7 °F 33.8 °F 93% 30.28 in 4.0 mi NE 5.8 mph - N/A   Overcast
12:53 AM 35.1 °F 30.1 °F 33.1 °F 92% 30.30 in 4.0 mi NE 5.8 mph - N/A   Overcast
1:35 AM 35.6 °F 29.9 °F 33.8 °F 93% 30.27 in 3.0 mi NNE 6.9 mph - N/A   Overcast
1:50 AM 33.8 °F 27.0 °F 33.8 °F 100% 30.27 in 3.0 mi North 8.1 mph - N/A   Overcast
1:53 AM 34.0 °F 26.0 °F 33.1 °F 96% 30.30 in 3.0 mi North 10.4 mph - N/A   Overcast
3:00 AM 33.8 °F 26.4 °F 33.8 °F 100% 30.27 in 3.0 mi North 9.2 mph - N/A   Overcast
3:30 AM 33.8 °F 27.0 °F 33.8 °F 100% 30.28 in 3.0 mi NNE 8.1 mph - N/A   Overcast
3:53 AM 34.0 °F 26.6 °F 32.0 °F 92% 30.30 in 3.0 mi NNE 9.2 mph - N/A   Overcast
4:53 AM 34.0 °F 29.8 °F 33.1 °F 96% 30.30 in 3.0 mi NNE 4.6 mph - N/A   Overcast
5:04 AM 35.6 °F 29.9 °F 32.0 °F 87% 30.27 in 3.0 mi NNE 6.9 mph - N/A   Overcast
5:53 AM 35.1 °F 31.0 °F 32.0 °F 89% 30.30 in 3.0 mi NE 4.6 mph - N/A   Overcast
6:53 AM 35.1 °F - 33.1 °F 92% 30.31 in 3.0 mi Calm Calm - N/A   Overcast
7:53 AM 35.1 °F - 33.1 °F 92% 30.32 in 2.5 mi Calm Calm - N/A   Overcast
8:34 AM 35.6 °F 31.7 °F 33.8 °F 93% 30.30 in 2.0 mi East 4.6 mph - N/A   Overcast
8:53 AM 36.0 °F 32.1 °F 34.0 °F 93% 30.32 in 2.0 mi East 4.6 mph - N/A   Overcast
9:00 AM 35.6 °F 31.7 °F 33.8 °F 93% 30.30 in 2.5 mi East 4.6 mph - N/A   Overcast
9:50 AM 37.4 °F 34.9 °F 33.8 °F 87% 30.30 in 3.0 mi SE 3.5 mph - N/A   Scattered Clouds
9:53 AM 37.9 °F 35.5 °F 34.0 °F 86% 30.32 in 3.0 mi ESE 3.5 mph - N/A   Scattered Clouds
10:53 AM 41.0 °F 38.0 °F 37.0 °F 86% 30.32 in 3.0 mi SSE 4.6 mph - N/A   Overcast
11:53 AM 46.0 °F 43.9 °F 39.9 °F 79% 30.31 in 5.0 mi WSW 4.6 mph - N/A   Haze
12:53 PM 51.1 °F - 41.0 °F 68% 30.29 in 6.0 mi Variable 5.8 mph - N/A   Haze
1:41 PM 51.8 °F - 42.8 °F 71% 30.25 in 7.0 mi WSW 5.8 mph - N/A   Mostly Cloudy
1:53 PM 52.0 °F - 41.0 °F 66% 30.26 in 6.0 mi West 9.2 mph - N/A   Haze
2:53 PM 55.0 °F - 42.1 °F 62% 30.22 in 7.0 mi WSW 5.8 mph - N/A   Overcast
3:33 PM 55.4 °F - 42.8 °F 63% 30.19 in 10.0 mi SSW 9.2 mph - N/A   Partly Cloudy
3:53 PM 55.9 °F - 42.1 °F 60% 30.18 in 10.0 mi WSW 9.2 mph - N/A   Clear
4:53 PM 55.9 °F - 41.0 °F 57% 30.15 in 10.0 mi SSW 9.2 mph - N/A   Partly Cloudy
5:53 PM 53.1 °F - 42.1 °F 66% 30.16 in 8.0 mi SSW 10.4 mph - N/A   Clear
6:53 PM 50.0 °F - 42.1 °F 74% 30.14 in 8.0 mi SSW 8.1 mph - N/A   Clear
7:53 PM 46.9 °F - 41.0 °F 80% 30.14 in 9.0 mi SSW 5.8 mph - N/A   Clear
8:53 PM 44.1 °F 40.8 °F 39.0 °F 82% 30.16 in 8.0 mi SSW 5.8 mph - N/A   Clear
9:53 PM 43.0 °F 38.2 °F 39.0 °F 86% 30.15 in 6.0 mi SSW 8.1 mph - N/A   Clear
10:53 PM 39.9 °F 35.1 °F 37.9 °F 93% 30.15 in 5.0 mi SSW 6.9 mph - N/A   Clear
11:53 PM 39.9 °F 35.1 °F 37.9 °F 93% 30.13 in 4.0 mi SSW 6.9 mph - N/A   Clear
12:46 AM 39.2 °F 35.0 °F 37.4 °F 93% 30.11 in 2.5 mi SSW 5.8 mph - N/A   Clear
12:53 AM 37.9 °F 33.5 °F 37.0 °F 97% 30.12 in 2.5 mi SSW 5.8 mph - N/A   Clear